Location: Carri�res
(48.9069°N, 2.1792°E)
Time: 12:27:58
(UTC+00:00)

Helios 1A Rocket - Pass Details

Date: 17 January 2021
Orbit: 562 x 587 km, 98.3° (Epoch: 25 February)

Event Time Altitude Azimuth Distance (km) Brightness Sun altitude
Rises 18:24:36 0° 159° (SSE) 2,796 6.3 -19.1°
Reaches altitude 10° 18:26:44 10° 158° (SSE) 1,904 5.4 -19.4°
Maximum altitude 18:30:51 75° 74° (ENE) 613 2.8 -20.1°
Drops below altitude 10° 18:35:02 10° 349° (N) 1,925 5.6 -20.8°
Sets 18:37:12 0° 348° (NNW) 2,830 6.5 -21.1°
